^^

..:: Storico WU ::..




Lo storico viene creato da WUnderground con i dati che la stazione Meteomincio invia al loro server. L' aggiornamento viene fatto ogni 5 minuti circa, tuttavia possono esserci intervalli pił ampi a causa di errori, interruzioni di servizio o problemi nell' invio tramite FTP.


Storico stazione MeteoMincio
Giorno Sommario per Giugno 16, 2022 Unità:  Inglese    Metrico   Entrambi
Giorno Settimana Mese Anno
  Max: Min: Media:
Temperatura: 91.4 °F 68 °F 80.4 °F
Dew Point: 73.4 °F 60.8 °F 67.1 °F
Umidità: 82% 48% 65%
Velocità vento: 7.5mph 0mph 2.8mph
Raffica: 11.8mph - -
Direzione- - East
Pressione: 30 in 29.9 in -
Precipitazioni: 0 in    
 
 
Tabulato Dati per Giugno 16, 2022
Ora Temperatura Dew Point Pressione Direzione Velocità vento Raffica Umidità Intensità pioggia (oraria) Info solare Situazione
00:04 75.2 °F 62.6 °F 30 in NE 3.7 mph 6.2 mph 64% 0 in 0.00 W/m2 unknown
00:09 75.2 °F 60.8 °F 30 in NE 5.6 mph 6.8 mph 63% 0 in 0.00 W/m2 unknown
00:14 75.2 °F 62.6 °F 30 in NE 5 mph 6.8 mph 64% 0 in 0.00 W/m2 unknown
00:19 75.2 °F 62.6 °F 30 in NE 3.1 mph 6.2 mph 64% 0 in 0.00 W/m2 unknown
00:24 75.2 °F 62.6 °F 30 in NE 3.7 mph 5 mph 65% 0 in 0.00 W/m2 unknown
00:29 75.2 °F 62.6 °F 30 in NE 3.7 mph 5 mph 65% 0 in 0.00 W/m2 unknown
00:34 73.4 °F 60.8 °F 30 in NE 3.1 mph 3.7 mph 65% 0 in 0.00 W/m2 unknown
00:39 73.4 °F 60.8 °F 30 in ENE 3.1 mph 3.7 mph 66% 0 in 0.00 W/m2 unknown
00:44 73.4 °F 62.6 °F 30 in NE 1.9 mph 3.1 mph 67% 0 in 0.00 W/m2 unknown
00:49 73.4 °F 62.6 °F 30 in East 2.5 mph 3.7 mph 68% 0 in 0.00 W/m2 unknown
00:54 73.4 °F 62.6 °F 30 in East 2.5 mph 3.7 mph 69% 0 in 0.00 W/m2 unknown
00:59 73.4 °F 62.6 °F 30 in East 1.9 mph 3.7 mph 69% 0 in 0.00 W/m2 unknown
01:04 73.4 °F 62.6 °F 30 in East 1.2 mph 1.9 mph 69% 0 in 0.00 W/m2 unknown
01:09 73.4 °F 62.6 °F 30 in East 0.6 mph 1.2 mph 69% 0 in 0.00 W/m2 unknown
01:14 73.4 °F 62.6 °F 30 in East 0.6 mph 1.2 mph 69% 0 in 0.00 W/m2 unknown
01:19 73.4 °F 62.6 °F 30 in East 0.6 mph 1.9 mph 69% 0 in 0.00 W/m2 unknown
01:24 73.4 °F 62.6 °F 30 in East 1.9 mph 2.5 mph 69% 0 in 0.00 W/m2 unknown
01:29 73.4 °F 60.8 °F 30 in ENE 1.2 mph 2.5 mph 68% 0 in 0.00 W/m2 unknown
01:34 73.4 °F 60.8 °F 30 in ENE 1.2 mph 2.5 mph 68% 0 in 0.00 W/m2 unknown
01:39 71.6 °F 60.8 °F 30 in ENE 1.2 mph 2.5 mph 68% 0 in 0.00 W/m2 unknown
01:44 73.4 °F 60.8 °F 30 in ENE 1.9 mph 3.7 mph 68% 0 in 0.00 W/m2 unknown
01:49 73.4 °F 60.8 °F 30 in NE 1.9 mph 3.7 mph 68% 0 in 0.00 W/m2 unknown
01:54 73.4 °F 60.8 °F 30 in NNE 1.9 mph 3.7 mph 68% 0 in 0.00 W/m2 unknown
01:59 73.4 °F 60.8 °F 30 in NNE 1.9 mph 3.1 mph 68% 0 in 0.00 W/m2 unknown
02:04 73.4 °F 60.8 °F 30 in North 1.9 mph 3.7 mph 68% 0 in 0.00 W/m2 unknown
02:09 73.4 °F 60.8 °F 30 in North 1.2 mph 3.7 mph 68% 0 in 0.00 W/m2 unknown
02:13 73.4 °F 60.8 °F 30 in NNE 1.2 mph 3.7 mph 68% 0 in 0.00 W/m2 unknown
02:19 73.4 °F 60.8 °F 30 in NNE 1.2 mph 3.7 mph 68% 0 in 0.00 W/m2 unknown
02:24 73.4 °F 62.6 °F 30 in NNE 1.9 mph 3.7 mph 69% 0 in 0.00 W/m2 unknown
02:29 73.4 °F 62.6 °F 30 in NE 1.9 mph 3.7 mph 70% 0 in 0.00 W/m2 unknown
02:34 73.4 °F 62.6 °F 30 in NE 1.2 mph 3.1 mph 71% 0 in 0.00 W/m2 unknown
02:39 71.6 °F 62.6 °F 30 in NE 1.2 mph 1.9 mph 72% 0 in 0.00 W/m2 unknown
02:44 71.6 °F 62.6 °F 30 in Calm   1.2 mph 72% 0 in 0.00 W/m2 unknown
02:49 71.6 °F 62.6 °F 30 in Calm   1.9 mph 73% 0 in 0.00 W/m2 unknown
02:54 71.6 °F 62.6 °F 30 in NE 0.6 mph 2.5 mph 73% 0 in 0.00 W/m2 unknown
02:59 71.6 °F 62.6 °F 30 in NE 0.6 mph 2.5 mph 73% 0 in 0.00 W/m2 unknown
03:04 71.6 °F 62.6 °F 30 in NE 1.2 mph 2.5 mph 74% 0 in 0.00 W/m2 unknown
03:09 71.6 °F 62.6 °F 30 in ENE 1.2 mph 2.5 mph 74% 0 in 0.00 W/m2 unknown
03:14 71.6 °F 62.6 °F 30 in ENE 1.2 mph 2.5 mph 75% 0 in 0.00 W/m2 unknown
03:19 69.8 °F 62.6 °F 30 in ENE 1.2 mph 2.5 mph 76% 0 in 0.00 W/m2 unknown
03:24 69.8 °F 62.6 °F 30 in East 1.2 mph 2.5 mph 76% 0 in 0.00 W/m2 unknown
03:29 69.8 °F 62.6 °F 30 in East 1.2 mph 2.5 mph 76% 0 in 0.00 W/m2 unknown
03:34 69.8 °F 62.6 °F 30 in ENE 1.2 mph 3.7 mph 77% 0 in 0.00 W/m2 unknown
03:39 69.8 °F 62.6 °F 30 in ENE 2.5 mph 3.7 mph 77% 0 in 0.00 W/m2 unknown
03:44 69.8 °F 62.6 °F 30 in ENE 2.5 mph 3.7 mph 77% 0 in 0.00 W/m2 unknown
03:49 69.8 °F 62.6 °F 30 in East 3.1 mph 3.7 mph 78% 0 in 0.00 W/m2 unknown
03:53 69.8 °F 62.6 °F 30 in East 2.5 mph 3.7 mph 79% 0 in 0.00 W/m2 unknown
03:59 69.8 °F 62.6 °F 30 in East 1.9 mph 3.7 mph 78% 0 in 0.00 W/m2 unknown
04:03 69.8 °F 62.6 °F 30 in East 1.2 mph 3.1 mph 78% 0 in 0.00 W/m2 unknown
04:08 69.8 °F 62.6 °F 30 in South 1.2 mph 1.9 mph 78% 0 in 0.00 W/m2 unknown
04:13 69.8 °F 62.6 °F 30 in SSW 0.6 mph 2.5 mph 78% 0 in 0.00 W/m2 unknown
04:18 69.8 °F 62.6 °F 30 in SSW 0.6 mph 2.5 mph 78% 0 in 0.00 W/m2 unknown
04:24 69.8 °F 62.6 °F 30 in SSW 0.6 mph 2.5 mph 78% 0 in 0.00 W/m2 unknown
04:28 69.8 °F 62.6 °F 30 in NE 0.6 mph 3.1 mph 78% 0 in 0.00 W/m2 unknown
04:33 69.8 °F 62.6 °F 30 in NE 1.9 mph 3.7 mph 79% 0 in 0.00 W/m2 unknown
04:39 69.8 °F 62.6 °F 30 in NE 1.9 mph 3.1 mph 79% 0 in 0.00 W/m2 unknown
04:44 69.8 °F 62.6 °F 30 in NNE 1.9 mph 3.7 mph 79% 0 in 0.00 W/m2 unknown
04:48 69.8 °F 62.6 °F 30 in NNE 1.9 mph 3.7 mph 78% 0 in 0.00 W/m2 unknown
04:52 69.8 °F 62.6 °F 30 in NNE 1.2 mph 2.5 mph 77% 0 in 0.00 W/m2 unknown
04:58 69.8 °F 62.6 °F 30 in NNE 1.9 mph 3.1 mph 77% 0 in 0.00 W/m2 unknown
05:03 69.8 °F 62.6 °F 30 in NNE 1.9 mph 3.7 mph 77% 0 in 0.00 W/m2 unknown
05:09 69.8 °F 62.6 °F 30 in ENE 1.9 mph 3.7 mph 77% 0 in 0.00 W/m2 unknown
05:14 69.8 °F 62.6 °F 30 in ENE 2.5 mph 3.7 mph 78% 0 in 0.00 W/m2 unknown
05:19 69.8 °F 62.6 °F 30 in NE 1.9 mph 3.7 mph 78% 0 in 0.00 W/m2 unknown
05:24 69.8 °F 62.6 °F 30 in NE 1.9 mph 3.7 mph 79% 0 in 0.00 W/m2 unknown
05:29 69.8 °F 62.6 °F 30 in NE 1.9 mph 3.1 mph 79% 0 in 0.00 W/m2 unknown
05:34 69.8 °F 62.6 °F 30 in NE 1.2 mph 2.5 mph 79% 0 in 0.00 W/m2 unknown
05:39 69.8 °F 62.6 °F 30 in NE 1.2 mph 2.5 mph 80% 0 in 5.00 W/m2 unknown
05:44 68 °F 62.6 °F 30 in NW 1.9 mph 3.7 mph 80% 0 in 9.00 W/m2 unknown
05:49 68 °F 62.6 °F 30 in WSW 2.5 mph 3.7 mph 81% 0 in 11.00 W/m2 unknown
05:54 68 °F 62.6 °F 30 in WSW 1.9 mph 3.7 mph 82% 0 in 14.00 W/m2 unknown
05:59 68 °F 62.6 °F 30 in West 1.2 mph 2.5 mph 82% 0 in 18.00 W/m2 unknown
06:04 68 °F 62.6 °F 30 in West 0.6 mph 2.5 mph 82% 0 in 18.00 W/m2 unknown
06:09 68 °F 62.6 °F 30 in West 0.6 mph 2.5 mph 82% 0 in 25.00 W/m2 unknown
06:13 68 °F 62.6 °F 30 in West 0.6 mph 2.5 mph 82% 0 in 26.00 W/m2 unknown
06:19 68 °F 62.6 °F 30 in East 0.6 mph 2.5 mph 82% 0 in 32.00 W/m2 unknown
06:24 68 °F 62.6 °F 30 in East 0.6 mph 2.5 mph 82% 0 in 37.00 W/m2 unknown
06:29 68 °F 62.6 °F 30 in ENE 1.2 mph 3.1 mph 82% 0 in 44.00 W/m2 unknown
06:34 68 °F 62.6 °F 30 in East 1.2 mph 2.5 mph 82% 0 in 53.00 W/m2 unknown
06:39 69.8 °F 62.6 °F 30 in ENE 1.9 mph 3.7 mph 81% 0 in 62.00 W/m2 unknown
06:44 69.8 °F 62.6 °F 30 in ENE 1.9 mph 3.7 mph 80% 0 in 74.00 W/m2 unknown
06:49 69.8 °F 62.6 °F 30 in NE 1.2 mph 3.1 mph 81% 0 in 86.00 W/m2 unknown
06:54 69.8 °F 62.6 °F 30 in NE 1.9 mph 3.7 mph 80% 0 in 97.00 W/m2 unknown
06:59 69.8 °F 62.6 °F 30 in NE 1.2 mph 3.7 mph 79% 0 in 111.00 W/m2 unknown
07:04 69.8 °F 62.6 °F 30 in ENE 1.2 mph 3.1 mph 78% 0 in 118.00 W/m2 unknown
07:09 71.6 °F 62.6 °F 30 in Calm   1.9 mph 78% 0 in 128.00 W/m2 unknown
07:14 71.6 °F 62.6 °F 30 in ENE 0.6 mph 2.5 mph 77% 0 in 139.00 W/m2 unknown
07:19 71.6 °F 64.4 °F 30 in ENE 0.6 mph 3.1 mph 77% 0 in 162.00 W/m2 unknown
07:24 71.6 °F 64.4 °F 30 in East 1.9 mph 3.7 mph 76% 0 in 178.00 W/m2 unknown
07:29 71.6 °F 64.4 °F 30 in East 2.5 mph 4.3 mph 75% 0 in 186.00 W/m2 unknown
07:34 71.6 °F 64.4 °F 30 in East 2.5 mph 4.3 mph 75% 0 in 163.00 W/m2 unknown
07:39 71.6 °F 64.4 °F 30 in NE 1.9 mph 5 mph 76% 0 in 156.00 W/m2 unknown
07:44 71.6 °F 64.4 °F 30 in NNE 1.9 mph 3.7 mph 77% 0 in 151.00 W/m2 unknown
07:49 73.4 °F 64.4 °F 30 in NE 1.9 mph 3.7 mph 76% 0 in 199.00 W/m2 unknown
07:54 73.4 °F 64.4 °F 30 in ENE 1.9 mph 3.7 mph 75% 0 in 236.00 W/m2 unknown
07:59 73.4 °F 64.4 °F 30 in NE 2.5 mph 3.7 mph 75% 0 in 258.00 W/m2 unknown
08:00 73.4 °F 64.4 °F 30 in ENE 1.2 mph 3.7 mph 73% 0 in 258.00 W/m2 unknown
08:09 73.4 °F 64.4 °F 30 in NE 4.3 mph 6.2 mph 73% 0 in 281.00 W/m2 unknown
08:14 75.2 °F 64.4 °F 30 in ENE 4.3 mph 6.2 mph 73% 0 in 309.00 W/m2 unknown
08:19 75.2 °F 66.2 °F 30 in NE 3.1 mph 5 mph 73% 0 in 320.00 W/m2 unknown
08:24 75.2 °F 64.4 °F 30 in NE 1.9 mph 3.7 mph 72% 0 in 327.00 W/m2 unknown
08:29 75.2 °F 66.2 °F 30 in NNE 2.5 mph 3.7 mph 71% 0 in 352.00 W/m2 unknown
08:33 75.2 °F 66.2 °F 30 in NNE 1.9 mph 3.7 mph 72% 0 in 276.00 W/m2 unknown
08:39 75.2 °F 66.2 °F 30 in NNE 1.9 mph 3.7 mph 73% 0 in 283.00 W/m2 unknown
08:44 75.2 °F 66.2 °F 30 in NE 2.5 mph 3.7 mph 74% 0 in 318.00 W/m2 unknown
08:49 75.2 °F 66.2 °F 30 in North 2.5 mph 3.7 mph 73% 0 in 248.00 W/m2 unknown
08:54 75.2 °F 66.2 °F 30 in NNE 1.9 mph 3.7 mph 73% 0 in 227.00 W/m2 unknown
08:59 75.2 °F 66.2 °F 30 in NE 2.5 mph 3.7 mph 71% 0 in 334.00 W/m2 unknown
09:03 75.2 °F 66.2 °F 30 in North 2.5 mph 3.7 mph 71% 0 in 350.00 W/m2 unknown
09:09 77 °F 66.2 °F 30 in NE 3.7 mph 5 mph 70% 0 in 406.00 W/m2 unknown
09:14 77 °F 66.2 °F 30 in ENE 3.7 mph 5 mph 70% 0 in 448.00 W/m2 unknown
09:19 77 °F 66.2 °F 30 in North 2.5 mph 5 mph 70% 0 in 431.00 W/m2 unknown
09:23 77 °F 66.2 °F 30 in North 2.5 mph 3.7 mph 70% 0 in 327.00 W/m2 unknown
09:29 77 °F 68 °F 30 in NNE 1.9 mph 3.7 mph 72% 0 in 454.00 W/m2 unknown
09:34 77 °F 68 °F 30 in East 2.5 mph 3.7 mph 72% 0 in 454.00 W/m2 unknown
09:39 77 °F 66.2 °F 30 in ENE 2.5 mph 3.7 mph 68% 0 in 619.00 W/m2 unknown
09:44 78.8 °F 66.2 °F 30 in ESE 2.5 mph 3.7 mph 67% 0 in 526.00 W/m2 unknown
09:49 77 °F 66.2 °F 30 in ESE 2.5 mph 3.7 mph 68% 0 in 410.00 W/m2 unknown
09:54 77 °F 66.2 °F 30 in East 1.9 mph 3.7 mph 67% 0 in 404.00 W/m2 unknown
09:59 77 °F 66.2 °F 30 in ESE 2.5 mph 3.7 mph 68% 0 in 534.00 W/m2 unknown
10:04 78.8 °F 66.2 °F 30 in East 2.5 mph 3.7 mph 68% 0 in 455.00 W/m2 unknown
10:09 78.8 °F 66.2 °F 30 in East 2.5 mph 5 mph 67% 0 in 687.00 W/m2 unknown
10:14 78.8 °F 66.2 °F 30 in East 3.1 mph 6.8 mph 66% 0 in 687.00 W/m2 unknown
10:19 78.8 °F 66.2 °F 30 in East 3.1 mph 6.8 mph 66% 0 in 645.00 W/m2 unknown
10:24 78.8 °F 66.2 °F 30 in ESE 3.7 mph 6.8 mph 65% 0 in 656.00 W/m2 unknown
10:29 80.6 °F 66.2 °F 30 in ESE 3.7 mph 6.2 mph 63% 0 in 691.00 W/m2 unknown
10:34 80.6 °F 66.2 °F 30 in SSE 3.1 mph 6.2 mph 64% 0 in 691.00 W/m2 unknown
10:39 80.6 °F 66.2 °F 30 in East 5 mph 6.8 mph 64% 0 in 557.00 W/m2 unknown
10:44 80.6 °F 66.2 °F 30 in SE 4.3 mph 6.8 mph 63% 0 in 643.00 W/m2 unknown
10:49 80.6 °F 66.2 °F 30 in ESE 3.1 mph 6.8 mph 63% 0 in 642.00 W/m2 unknown
10:54 80.6 °F 68 °F 30 in East 3.1 mph 5 mph 63% 0 in 707.00 W/m2 unknown
10:59 80.6 °F 68 °F 30 in ESE 4.3 mph 6.2 mph 63% 0 in 707.00 W/m2 unknown
11:04 82.4 °F 66.2 °F 30 in ENE 4.3 mph 6.2 mph 60% 0 in 696.00 W/m2 unknown
11:09 82.4 °F 66.2 °F 30 in ENE 3.1 mph 6.2 mph 59% 0 in 724.00 W/m2 unknown
11:14 82.4 °F 66.2 °F 30 in East 3.7 mph 6.2 mph 58% 0 in 728.00 W/m2 unknown
11:19 82.4 °F 66.2 °F 30 in NE 3.7 mph 6.8 mph 59% 0 in 738.00 W/m2 unknown
11:24 82.4 °F 66.2 °F 30 in East 3.7 mph 6.8 mph 58% 0 in 754.00 W/m2 unknown
11:28 82.4 °F 66.2 °F 30 in SE 3.7 mph 6.8 mph 59% 0 in 759.00 W/m2 unknown
11:34 84.2 °F 68 °F 30 in ENE 3.1 mph 6.8 mph 59% 0 in 773.00 W/m2 unknown
11:39 84.2 °F 68 °F 30 in ENE 3.7 mph 6.8 mph 59% 0 in 773.00 W/m2 unknown
11:44 84.2 °F 68 °F 30 in ESE 4.3 mph 6.8 mph 59% 0 in 782.00 W/m2 unknown
11:49 84.2 °F 68 °F 30 in East 4.3 mph 6.8 mph 60% 0 in 793.00 W/m2 unknown
11:54 84.2 °F 69.8 °F 30 in NE 5 mph 6.8 mph 60% 0 in 798.00 W/m2 unknown
11:59 84.2 °F 69.8 °F 30 in ENE 3.7 mph 6.8 mph 60% 0 in 800.00 W/m2 unknown
12:04 86 °F 69.8 °F 30 in ENE 5.6 mph 6.8 mph 60% 0 in 802.00 W/m2 unknown
12:09 86 °F 69.8 °F 30 in ENE 5.6 mph 6.8 mph 59% 0 in 807.00 W/m2 unknown
12:14 84.2 °F 68 °F 30 in ESE 5 mph 6.8 mph 58% 0 in 821.00 W/m2 unknown
12:19 84.2 °F 68 °F 30 in SE 3.7 mph 6.2 mph 59% 0 in 835.00 W/m2 unknown
12:24 84.2 °F 68 °F 30 in SSE 3.1 mph 5.6 mph 58% 0 in 835.00 W/m2 unknown
12:29 84.2 °F 68 °F 30 in ESE 3.1 mph 6.2 mph 59% 0 in 805.00 W/m2 unknown
12:34 84.2 °F 68 °F 30 in ESE 4.3 mph 6.8 mph 58% 0 in 812.00 W/m2 unknown
12:39 86 °F 68 °F 30 in ESE 4.3 mph 8.1 mph 58% 0 in 854.00 W/m2 unknown
12:44 86 °F 69.8 °F 30 in ESE 5 mph 8.1 mph 58% 0 in 902.00 W/m2 unknown
12:49 86 °F 69.8 °F 30 in SE 5 mph 8.1 mph 58% 0 in 911.00 W/m2 unknown
12:54 86 °F 69.8 °F 30 in East 3.1 mph 6.8 mph 57% 0 in 928.00 W/m2 unknown
12:59 86 °F 69.8 °F 30 in NE 4.3 mph 8.1 mph 59% 0 in 879.00 W/m2 unknown
13:04 86 °F 69.8 °F 30 in NE 5 mph 8.1 mph 58% 0 in 712.00 W/m2 unknown
13:09 86 °F 69.8 °F 30 in ENE 5 mph 8.1 mph 58% 0 in 619.00 W/m2 unknown
13:14 86 °F 69.8 °F 30 in ESE 5 mph 8.1 mph 58% 0 in 756.00 W/m2 unknown
13:19 86 °F 69.8 °F 30 in ESE 5 mph 8.1 mph 58% 0 in 919.00 W/m2 unknown
13:24 87.8 °F 69.8 °F 30 in NE 5 mph 6.8 mph 58% 0 in 935.00 W/m2 unknown
13:29 87.8 °F 69.8 °F 30 in East 3.1 mph 6.8 mph 57% 0 in 983.00 W/m2 unknown
13:34 87.8 °F 69.8 °F 30 in ENE 3.7 mph 5 mph 57% 0 in 983.00 W/m2 unknown
13:39 87.8 °F 69.8 °F 30 in SE 3.1 mph 5 mph 57% 0 in 666.00 W/m2 unknown
13:44 86 °F 69.8 °F 30 in SSE 3.1 mph 5 mph 58% 0 in 684.00 W/m2 unknown
13:49 86 °F 69.8 °F 30 in WSW 3.1 mph 3.7 mph 59% 0 in 751.00 W/m2 unknown
13:54 87.8 °F 69.8 °F 30 in NW 2.5 mph 3.7 mph 58% 0 in 773.00 W/m2 unknown
13:59 87.8 °F 69.8 °F 30 in East 1.9 mph 3.7 mph 56% 0 in 868.00 W/m2 unknown
14:04 87.8 °F 71.6 °F 30 in NNE 4.3 mph 8.1 mph 57% 0 in 879.00 W/m2 unknown
14:09 89.6 °F 71.6 °F 30 in NE 4.3 mph 8.1 mph 56% 0 in 875.00 W/m2 unknown
14:14 87.8 °F 69.8 °F 30 in East 4.3 mph 6.8 mph 56% 0 in 858.00 W/m2 unknown
14:19 87.8 °F 71.6 °F 30 in ESE 3.7 mph 6.8 mph 58% 0 in 851.00 W/m2 unknown
14:24 89.6 °F 71.6 °F 30 in NNE 3.1 mph 6.8 mph 57% 0 in 847.00 W/m2 unknown
14:29 89.6 °F 71.6 °F 30 in NE 3.7 mph 5 mph 57% 0 in 835.00 W/m2 unknown
14:34 89.6 °F 71.6 °F 30 in ENE 3.1 mph 5 mph 55% 0 in 828.00 W/m2 unknown
14:39 89.6 °F 69.8 °F 30 in ENE 3.1 mph 6.8 mph 54% 0 in 826.00 W/m2 unknown
14:44 87.8 °F 69.8 °F 30 in NE 3.7 mph 6.8 mph 54% 0 in 812.00 W/m2 unknown
14:49 89.6 °F 69.8 °F 30 in NNW 3.1 mph 6.8 mph 55% 0 in 814.00 W/m2 unknown
14:54 89.6 °F 69.8 °F 30 in NE 4.3 mph 6.8 mph 54% 0 in 814.00 W/m2 unknown
14:59 89.6 °F 69.8 °F 30 in East 5 mph 6.8 mph 54% 0 in 800.00 W/m2 unknown
15:04 89.6 °F 69.8 °F 30 in NNE 5 mph 8.1 mph 53% 0 in 800.00 W/m2 unknown
15:09 91.4 °F 71.6 °F 30 in NE 5 mph 8.1 mph 54% 0 in 796.00 W/m2 unknown
15:14 91.4 °F 71.6 °F 30 in North 5 mph 8.1 mph 55% 0 in 788.00 W/m2 unknown
15:19 91.4 °F 71.6 °F 30 in ENE 3.7 mph 8.1 mph 55% 0 in 782.00 W/m2 unknown
15:24 89.6 °F 71.6 °F 30 in ESE 5 mph 8.1 mph 53% 0 in 777.00 W/m2 unknown
15:29 89.6 °F 69.8 °F 30 in East 5 mph 8.1 mph 52% 0 in 772.00 W/m2 unknown
15:34 89.6 °F 73.4 °F 30 in East 5 mph 6.8 mph 57% 0 in 756.00 W/m2 unknown
15:39 91.4 °F 69.8 °F 30 in NNW 3.1 mph 6.8 mph 52% 0 in 747.00 W/m2 unknown
15:44 91.4 °F 69.8 °F 30 in North 2.5 mph 5 mph 52% 0 in 742.00 W/m2 unknown
15:49 91.4 °F 69.8 °F 30 in NE 3.7 mph 6.2 mph 52% 0 in 729.00 W/m2 unknown
15:54 89.6 °F 69.8 °F 30 in NNE 3.7 mph 6.2 mph 52% 0 in 726.00 W/m2 unknown
15:59 89.6 °F 69.8 °F 30 in NNW 3.1 mph 6.2 mph 51% 0 in 722.00 W/m2 unknown
16:04 89.6 °F 71.6 °F 30 in East 3.1 mph 5 mph 54% 0 in 715.00 W/m2 unknown
16:06 91.4 °F 71.6 °F 30 in SSW 1.9 mph 5 mph 53% 0 in 707.00 W/m2 unknown
16:14 91.4 °F 71.6 °F 30 in NNE 5 mph 6.8 mph 53% 0 in 707.00 W/m2 unknown
16:19 91.4 °F 69.8 °F 30 in North 5 mph 6.8 mph 50% 0 in 686.00 W/m2 unknown
16:24 91.4 °F 69.8 °F 29.9 in West 3.1 mph 6.8 mph 48% 0 in 670.00 W/m2 unknown
16:29 91.4 °F 69.8 °F 29.9 in ESE 1.9 mph 3.7 mph 51% 0 in 659.00 W/m2 unknown
16:34 91.4 °F 71.6 °F 29.9 in ESE 4.3 mph 8.1 mph 53% 0 in 642.00 W/m2 unknown
16:39 89.6 °F 69.8 °F 29.9 in ESE 6.2 mph 8.1 mph 52% 0 in 626.00 W/m2 unknown
16:44 89.6 °F 69.8 °F 29.9 in East 6.2 mph 6.8 mph 51% 0 in 617.00 W/m2 unknown
16:49 89.6 °F 69.8 °F 29.9 in ESE 5 mph 6.2 mph 52% 0 in 608.00 W/m2 unknown
16:54 89.6 °F 69.8 °F 29.9 in SSE 3.1 mph 5 mph 51% 0 in 608.00 W/m2 unknown
16:59 89.6 °F 69.8 °F 29.9 in ESE 2.5 mph 5 mph 51% 0 in 601.00 W/m2 unknown
17:04 91.4 °F 69.8 °F 29.9 in ESE 2.5 mph 5 mph 51% 0 in 598.00 W/m2 unknown
17:09 91.4 °F 69.8 °F 29.9 in ENE 2.5 mph 5 mph 51% 0 in 587.00 W/m2 unknown
17:14 91.4 °F 71.6 °F 29.9 in NNE 2.5 mph 5 mph 52% 0 in 568.00 W/m2 unknown
17:19 91.4 °F 69.8 °F 29.9 in NE 1.9 mph 3.7 mph 51% 0 in 554.00 W/m2 unknown
17:24 91.4 °F 69.8 °F 29.9 in NW 1.9 mph 3.7 mph 49% 0 in 550.00 W/m2 unknown
17:29 91.4 °F 71.6 °F 29.9 in West 2.5 mph 3.7 mph 51% 0 in 522.00 W/m2 unknown
17:34 91.4 °F 69.8 °F 29.9 in NW 2.5 mph 3.7 mph 49% 0 in 506.00 W/m2 unknown
17:39 91.4 °F 69.8 °F 29.9 in WNW 2.5 mph 3.7 mph 48% 0 in 490.00 W/m2 unknown
17:44 91.4 °F 69.8 °F 29.9 in NNW 2.5 mph 6.2 mph 48% 0 in 473.00 W/m2 unknown
17:49 91.4 °F 69.8 °F 29.9 in NNW 2.5 mph 6.2 mph 49% 0 in 462.00 W/m2 unknown
17:54 91.4 °F 69.8 °F 29.9 in WNW 1.9 mph 6.2 mph 49% 0 in 445.00 W/m2 unknown
17:59 91.4 °F 69.8 °F 29.9 in East 1.9 mph 3.7 mph 49% 0 in 429.00 W/m2 unknown
18:04 91.4 °F 69.8 °F 29.9 in ESE 3.1 mph 3.7 mph 51% 0 in 415.00 W/m2 unknown
18:09 91.4 °F 69.8 °F 29.9 in ESE 1.9 mph 3.7 mph 51% 0 in 403.00 W/m2 unknown
18:14 91.4 °F 69.8 °F 29.9 in ESE 2.5 mph 3.7 mph 51% 0 in 387.00 W/m2 unknown
18:19 91.4 °F 69.8 °F 29.9 in ESE 3.1 mph 3.7 mph 50% 0 in 371.00 W/m2 unknown
18:24 91.4 °F 69.8 °F 29.9 in SE 2.5 mph 3.7 mph 51% 0 in 364.00 W/m2 unknown
18:29 91.4 °F 71.6 °F 29.9 in SE 1.9 mph 3.7 mph 53% 0 in 345.00 W/m2 unknown
18:34 91.4 °F 71.6 °F 29.9 in ESE 2.5 mph 4.3 mph 53% 0 in 323.00 W/m2 unknown
18:39 91.4 °F 69.8 °F 29.9 in ESE 2.5 mph 5 mph 51% 0 in 302.00 W/m2 unknown
18:44 91.4 °F 69.8 °F 29.9 in ESE 1.9 mph 5 mph 51% 0 in 290.00 W/m2 unknown
18:49 91.4 °F 71.6 °F 29.9 in ESE 1.9 mph 3.7 mph 53% 0 in 274.00 W/m2 unknown
18:54 89.6 °F 71.6 °F 29.9 in ESE 1.9 mph 3.7 mph 55% 0 in 257.00 W/m2 unknown
18:59 89.6 °F 71.6 °F 29.9 in ESE 3.1 mph 6.8 mph 55% 0 in 244.00 W/m2 unknown
19:04 89.6 °F 71.6 °F 29.9 in ESE 3.7 mph 6.8 mph 55% 0 in 229.00 W/m2 unknown
19:09 89.6 °F 69.8 °F 29.9 in East 4.3 mph 5 mph 54% 0 in 211.00 W/m2 unknown
19:14 89.6 °F 71.6 °F 29.9 in East 3.7 mph 5 mph 55% 0 in 192.00 W/m2 unknown
19:19 89.6 °F 71.6 °F 29.9 in ENE 3.1 mph 5 mph 55% 0 in 186.00 W/m2 unknown
19:24 89.6 °F 71.6 °F 29.9 in ENE 3.1 mph 5 mph 55% 0 in 183.00 W/m2 unknown
19:29 89.6 °F 71.6 °F 29.9 in ENE 2.5 mph 3.7 mph 55% 0 in 162.00 W/m2 unknown
19:34 89.6 °F 71.6 °F 29.9 in ENE 2.5 mph 3.7 mph 55% 0 in 149.00 W/m2 unknown
19:39 89.6 °F 71.6 °F 29.9 in ENE 2.5 mph 3.7 mph 57% 0 in 107.00 W/m2 unknown
19:44 89.6 °F 71.6 °F 29.9 in ENE 1.9 mph 3.7 mph 58% 0 in 100.00 W/m2 unknown
19:49 89.6 °F 73.4 °F 29.9 in ENE 1.9 mph 3.7 mph 60% 0 in 100.00 W/m2 unknown
19:54 87.8 °F 73.4 °F 29.9 in ENE 1.9 mph 3.7 mph 60% 0 in 93.00 W/m2 unknown
19:59 87.8 °F 73.4 °F 29.9 in ENE 2.5 mph 3.7 mph 61% 0 in 63.00 W/m2 unknown
20:04 87.8 °F 73.4 °F 29.9 in ENE 2.5 mph 3.7 mph 62% 0 in 69.00 W/m2 unknown
20:09 87.8 °F 73.4 °F 29.9 in ENE 1.9 mph 3.1 mph 62% 0 in 65.00 W/m2 unknown
20:12 87.8 °F 71.6 °F 29.9 in ENE 1.2 mph 2.5 mph 61% 0 in 53.00 W/m2 unknown
20:19 87.8 °F 71.6 °F 29.9 in ENE 1.2 mph 2.5 mph 60% 0 in 53.00 W/m2 unknown
20:24 87.8 °F 71.6 °F 29.9 in East 1.2 mph 2.5 mph 60% 0 in 30.00 W/m2 unknown
20:29 86 °F 71.6 °F 29.9 in ENE 1.9 mph 3.7 mph 62% 0 in 25.00 W/m2 unknown
20:34 86 °F 71.6 °F 29.9 in ENE 1.9 mph 3.7 mph 63% 0 in 21.00 W/m2 unknown
20:39 86 °F 71.6 °F 29.9 in ENE 1.2 mph 3.7 mph 63% 0 in 19.00 W/m2 unknown
20:44 86 °F 71.6 °F 29.9 in East 1.2 mph 2.5 mph 63% 0 in 14.00 W/m2 unknown
20:49 86 °F 71.6 °F 29.9 in East 1.9 mph 3.7 mph 64% 0 in 14.00 W/m2 unknown
20:54 86 °F 71.6 °F 29.9 in ENE 2.5 mph 3.7 mph 65% 0 in 11.00 W/m2 unknown
20:59 86 °F 71.6 °F 29.9 in ENE 1.9 mph 3.7 mph 64% 0 in 7.00 W/m2 unknown
21:04 86 °F 71.6 °F 29.9 in ENE 1.9 mph 3.7 mph 63% 0 in 5.00 W/m2 unknown
21:09 86 °F 71.6 °F 29.9 in ENE 1.9 mph 3.7 mph 63% 0 in 0.00 W/m2 unknown
21:14 84.2 °F 71.6 °F 29.9 in ENE 2.5 mph 3.7 mph 63% 0 in 0.00 W/m2 unknown
21:19 84.2 °F 69.8 °F 29.9 in ENE 2.5 mph 3.7 mph 63% 0 in 0.00 W/m2 unknown
21:24 84.2 °F 69.8 °F 29.9 in East 1.9 mph 3.7 mph 63% 0 in 0.00 W/m2 unknown
21:29 84.2 °F 71.6 °F 29.9 in East 1.9 mph 3.7 mph 66% 0 in 0.00 W/m2 unknown
21:34 84.2 °F 71.6 °F 29.9 in East 1.9 mph 3.7 mph 66% 0 in 0.00 W/m2 unknown
21:39 84.2 °F 71.6 °F 29.9 in East 1.9 mph 3.7 mph 68% 0 in 0.00 W/m2 unknown
21:44 82.4 °F 71.6 °F 29.9 in East 1.9 mph 3.7 mph 69% 0 in 0.00 W/m2 unknown
21:49 82.4 °F 71.6 °F 29.9 in East 1.9 mph 3.1 mph 69% 0 in 0.00 W/m2 unknown
21:54 82.4 °F 71.6 °F 29.9 in East 1.9 mph 3.7 mph 68% 0 in 0.00 W/m2 unknown
21:59 82.4 °F 71.6 °F 29.9 in ENE 1.9 mph 3.7 mph 68% 0 in 0.00 W/m2 unknown
22:04 82.4 °F 69.8 °F 30 in ENE 2.5 mph 3.7 mph 67% 0 in 0.00 W/m2 unknown
22:09 82.4 °F 69.8 °F 30 in ENE 1.9 mph 5 mph 67% 0 in 0.00 W/m2 unknown
22:14 82.4 °F 69.8 °F 30 in ENE 6.2 mph 11.8 mph 67% 0 in 0.00 W/m2 unknown
22:19 82.4 °F 69.8 °F 30 in ENE 7.5 mph 11.8 mph 68% 0 in 0.00 W/m2 unknown
22:24 82.4 °F 69.8 °F 30 in ENE 6.8 mph 11.8 mph 69% 0 in 0.00 W/m2 unknown
22:29 80.6 °F 69.8 °F 30 in ENE 6.2 mph 8.7 mph 69% 0 in 0.00 W/m2 unknown
22:34 80.6 °F 69.8 °F 30 in ENE 5.6 mph 6.8 mph 70% 0 in 0.00 W/m2 unknown
22:39 80.6 °F 69.8 °F 30 in East 5 mph 6.8 mph 71% 0 in 0.00 W/m2 unknown
22:44 78.8 °F 69.8 °F 30 in East 5 mph 6.8 mph 71% 0 in 0.00 W/m2 unknown
22:49 78.8 °F 69.8 °F 30 in East 5 mph 6.8 mph 71% 0 in 0.00 W/m2 unknown
22:54 78.8 °F 69.8 °F 30 in ENE 5 mph 6.2 mph 71% 0 in 0.00 W/m2 unknown
22:59 78.8 °F 68 °F 30 in ENE 3.7 mph 6.8 mph 71% 0 in 0.00 W/m2 unknown
23:04 78.8 °F 68 °F 30 in NE 4.3 mph 6.8 mph 71% 0 in 0.00 W/m2 unknown
23:09 78.8 °F 68 °F 30 in NE 5 mph 6.8 mph 71% 0 in 0.00 W/m2 unknown
23:14 78.8 °F 68 °F 30 in ENE 4.3 mph 6.8 mph 71% 0 in 0.00 W/m2 unknown
23:19 78.8 °F 68 °F 30 in ENE 5 mph 6.2 mph 71% 0 in 0.00 W/m2 unknown
23:24 78.8 °F 68 °F 30 in ENE 5 mph 8.1 mph 71% 0 in 0.00 W/m2 unknown
23:29 77 °F 68 °F 30 in ENE 6.2 mph 8.1 mph 71% 0 in 0.00 W/m2 unknown
23:34 77 °F 68 °F 30 in ENE 6.8 mph 9.3 mph 71% 0 in 0.00 W/m2 unknown
23:39 77 °F 68 °F 30 in ENE 6.2 mph 9.3 mph 71% 0 in 0.00 W/m2 unknown
23:44 77 °F 68 °F 30 in ENE 6.8 mph 9.3 mph 71% 0 in 0.00 W/m2 unknown
23:49 77 °F 66.2 °F 30 in ENE 6.2 mph 9.3 mph 71% 0 in 0.00 W/m2 unknown
23:54 77 °F 66.2 °F 30 in ENE 6.2 mph 8.7 mph 71% 0 in 0.00 W/m2 unknown
23:59 77 °F 66.2 °F 30 in East 6.2 mph 8.1 mph 71% 0 in 0.00 W/m2 unknown
Stazione Meteorologica MeteoMincio Rivalta s/M (MN)
Con i complimenti di Weather Underground - 4 mb



METEO PILLOLE
Il ghiacciaio più meridionale d'Europa
Ghiacciaio del Calderone, Teramo, Abruzzo, Italia:
Definito "fossile" perchè la parte di ghiaccio vivo è quasi totalmente ricoperta di ghiaia, comunque ospita nevai perenni. Si estende tra circa 2650 m e circa 2850 m di quota sotto la vetta del Corno Grande, cima più alta dell'Appennino (2912 m), gruppo montuoso del Gran Sasso d'Italia.
Share

Non seguire questo link o sarai bannato dal sito!